Regional Weather Roundup
Issued by NWS

Home | Current Version | Previous Version | Graphics & Text | Print | Product List | Glossary Off
Versions: 1 2 3 4 5 6 7 8 9 10 11 12 13 14 15 16 17 18 19 20 21 22 23 24 25 26 27 28 29 30 31 32 33 34 35 36 37 38 39 40 41 42 43 44 45 46 47 48 49 50

108
ASUS43 KMPX 202001
RWRMN
WEATHER ROUNDUP FOR MINNESOTA
NATIONAL WEATHER SERVICE TWIN CITIES/CHANHASSEN MN
200 PM CST SAT JAN 20 2018


NOTE: "FAIR" INDICATES FEW OR NO CLOUDS BELOW 12,000 FEET WITH NO
SIGNIFICANT WEATHER AND/OR OBSTRUCTIONS TO VISIBILITY. N/A MEANS
CURRENT SKY AND/OR WEATHER CONDITIONS ARE NOT AVAILABLE.

MNZ060>063-068>070-202100-
   Twin Cities Metro

CITY           SKY/WX    TMP DP  RH WIND       PRES   REMARKS
TWIN CITIES    PTSUNNY   41  33  73 CALM      29.87F
ST PAUL        CLOUDY    39  32  76 CALM      29.88F
CRYSTAL        CLOUDY    41  29  62 SW5       29.85F
BLAINE         CLOUDY    43  34  70 SW5       29.86F
LAKEVILLE      FAIR      37  30  75 SW3       29.88S
EDEN PRAIRIE   PTSUNNY   41  31  67 SW5       29.86F
SOUTH ST PAUL  PTSUNNY   40  31  69 CALM      29.87F
LAKE ELMO      FAIR      37  32  81 CALM      29.87F
$$
MNZ001>005-007-008-013>017-022>024-027-028-202100-
   Northwest Minnesota

CITY           SKY/WX    TMP DP  RH WIND       PRES   REMARKS
BEMIDJI        FAIR      34  27  77 W6        29.79S WCI  29
HALLOCK        FAIR      30  28  93 S3        29.79S
ROSEAU         FAIR      34  27  75 S5        29.78S WCI  30
WARROAD        FAIR      34  28  80 S7        29.77F WCI  28
CROOKSTON      FAIR      32  28  86 SW5       29.81F WCI  27
FOSSTON        FAIR      34  27  75 SW8       29.81R WCI  27
DETROIT LAKES  FAIR      36  30  80 NW9       29.82S
MOORHEAD       FAIR      39  30  70 W9        29.85R
PARK RAPIDS    FAIR      34  28  79 W8        29.80S WCI  27
MAHNOMEN       FAIR      32  28  85 W7        29.82S WCI  26
$$
MNZ006-009>011-018-025>026-202100-
   North Central Minnesota

CITY           SKY/WX    TMP DP  RH WIND       PRES   REMARKS
BAUDETTE       FAIR      35  27  72 W5        29.77S WCI  31
FLAG ISLAND    PTSUNNY   27  25  93 SE10      29.75F FOG     WCI  17
INTL FALLS     FAIR      35  26  69 SW6       29.78S WCI  30
WASKISH        FAIR      30  27  86 W7        29.80S WCI  23
BIG FORK       FAIR      39  28  65 SW5       29.78S
LONGVILLE      FAIR      37  27  65 W3        29.80R
GRAND RAPIDS   PTSUNNY   35  28  75 N3        29.81S
CRANE LAKE     FAIR      37  28  70 W3        29.80S
ORR            FAIR      37  27  65 NW3       29.76S
COOK           PTSUNNY   36  28  75 W5        29.78F
WALKER         FAIR      35  27  73 W7        29.79S WCI  29
$$
MNZ012-019>021-037-202100-
   Northeast Minnesota

CITY           SKY/WX    TMP DP  RH WIND       PRES   REMARKS
DULUTH         FAIR      41  30  65 W7        29.78F
HIBBING        FAIR      34  28  79 N3        29.78F
EVELETH        FAIR      33  26  72 CALM      29.79S
DULUTH HARBOR  FAIR      39  30  70 SW5       29.81F
TWO HARBORS    FAIR      46  34  61 S6        29.76F
SILVER BAY     FAIR      45  30  57 W5        29.77S
GRAND MARAIS     N/A     38  34  85 SW9       29.80S
G MARAIS ARPRT FAIR      37  27  65 SW6       29.76S
$$
MNZ029>031-032-039>041-046>048-054>057-064-202100-
   West Central Minnesota

CITY           SKY/WX    TMP DP  RH WIND       PRES   REMARKS
FERGUS FALLS   FAIR      36  30  80 W6        29.84R
WHEATON        CLOUDY    45  28  53 W6        29.89R
MORRIS         CLOUDY    45  30  57 W8        29.86S
ALEXANDRIA     CLOUDY    41  29  62 W7        29.85R
ELBOW LAKE     FAIR      38  32  77 NW7       29.86R
WADENA         FAIR      36  27  69 W8        29.82R
GLENWOOD       FAIR      39  30  70 SW12      29.87R
APPLETON       MOSUNNY   43  32  65 W6        29.88F
BENSON         MOSUNNY   41  30  65 W7        29.89S
ORTONVILLE     CLOUDY    45  28  53 W3        29.87F
MADISON        CLOUDY    46  28  49 NW3       29.87F
WILLMAR        FAIR      39  32  75 W5        29.90R
$$
MNZ033>034-036-042>043-049>051-058-059-202100-
   Central Minnesota

CITY           SKY/WX    TMP DP  RH WIND       PRES   REMARKS
ST CLOUD       CLOUDY    36  31  82 S7        29.85R
SAUK CENTRE      N/A     37  31  78 SW7       29.85S
PAYNESVILLE    CLOUDY    37  32  83 SW8       29.88R
AITKIN         FAIR      37  27  65 SW8       29.79F
PINE RIVER     FAIR      37  27  65 SW5       29.84S
BRAINERD       FAIR      37  29  72 SW5       29.81F
STAPLES        FAIR      36  28  75 W7        29.82S
LONG PRAIRIE   FAIR      36  30  80 S8        29.85R
LITTLE FALLS   FAIR      36  27  69 SW9       29.85R
LITCHFIELD     CLOUDY    39  34  81 W3        29.88R
BUFFALO        CLOUDY    38  31  77 SW5       29.88R
MAPLE LAKE     CLOUDY    39  33  78 MISG      29.87R
HUTCHINSON     CLOUDY    42  34  73 W8        29.88R
$$
MNZ037-044-045-052-053-202100-
   East Central Minnesota

CITY           SKY/WX    TMP DP  RH WIND       PRES   REMARKS
PRINCETON      PTSUNNY   41  32  70 SW3       29.86R
MORA           FAIR      36  30  80 SW7       29.85R
CAMBRIDGE      CLOUDY    39  28  65 S6        29.85S
RUSH CITY      CLOUDY    38  30  74 S7        29.85S
MOOSE LAKE     FAIR      41  30  65 SW7       29.79F
HINCKLEY       FAIR      39  32  75 S6        29.83S
CLOQUET        FAIR      39  27  60 S5        29.78F
MCGREGOR       FAIR      37  30  75 S5        29.80F
$$
MNZ071>073-080-081-089-090-097-098-202100-
   Southwest Minnesota

CITY           SKY/WX    TMP DP  RH WIND       PRES   REMARKS
MONTEVIDEO     CLOUDY    45  30  57 N5        29.88S
GRANITE FALLS  CLOUDY    47  32  55 W5        29.89S
CANBY          CLOUDY    48  26  43 W6        29.88S
MARSHALL       CLOUDY    46  28  49 CALM      29.88F
REDWOOD FALLS  CLOUDY    44  30  57 W5        29.87F
OLIVIA         CLOUDY    43  32  65 W6        29.87S
PIPESTONE      CLOUDY    39  30  70 N3        29.85F
WINDOM         CLOUDY    45  25  45 CALM      29.86F
WORTHINGTON    CLOUDY    45  33  63 CALM      29.86F
JACKSON        CLOUDY    43  32  65 CALM      29.86F
TRACY          MOSUNNY   45  32  60 CALM      29.87S
SLAYTON        CLOUDY    42  33  72 W7        29.87F
$$
MNZ065>067-074>077-082>085-091>093-202100-
   South Central Minnesota

CITY           SKY/WX    TMP DP  RH WIND       PRES   REMARKS
MANKATO        FAIR      40  32  73 W5        29.89S
NEW ULM        CLOUDY    41  30  65 CALM      29.87F
ST JAMES       CLOUDY    43  34  70 CALM      29.88F
FAIRMONT       CLOUDY    42  34  73 NW5       29.88S
FARIBAULT      FAIR      39  32  75 CALM      29.88S
OWATONNA       FAIR      37  34  87 CALM      29.88S
WASECA         FAIR      36  32  87 CALM      29.89S
ALBERT LEA     FAIR      43  30  61 CALM      29.87R
$$
MNZ078>079-086>088-094>096-202100-
   Southeast Minnesota

CITY           SKY/WX    TMP DP  RH WIND       PRES   REMARKS
ROCHESTER      FAIR      40  34  79 CALM      29.87S
RED WING       CLOUDY    36  28  75 CALM      29.88S
STANTON        PTSUNNY   37  32  83 CALM      29.87S
DODGE CENTER   FAIR      37  32  81 CALM      29.87S
WINONA         FAIR      37  32  81 CALM      29.87F
PRESTON        FAIR      43  31  64 S3        29.87S
$$
ABBREVIATIONS USED IN REMARKS
   TC - TEMPERATURES IN CELSIUS
  WCI - WIND CHILL INDEX
   HX - HEAT INDEX
  VSB - VISIBILITY
$$




USA.gov is the U.S. government's official web portal to all federal, state and local government web resources and services.